Time,TemperatureF,DewpointF,PressureIn,WindDirection,WindDirectionDegrees,WindSpeedMPH,WindSpeedGustMPH,Humidity,HourlyPrecipIn,Conditions,Clouds,dailyrainin,SoftwareType,DateUTC
2013-10-08 00:01:00,47.0,45.7,30.13,WSW,248,3.0,6.0,95,0.00,,---,0.00,VWS V14.01,2013-10-08 04:01:00,
2013-10-08 00:02:00,47.0,45.7,30.13,WSW,248,2.0,6.0,95,0.00,,---,0.00,VWS V14.01,2013-10-08 04:02:00,
2013-10-08 00:03:00,47.0,45.7,30.13,WSW,248,3.0,6.0,95,0.00,,---,0.00,VWS V14.01,2013-10-08 04:03:00,
2013-10-08 00:06:00,47.0,45.7,30.13,SW,225,2.0,6.0,95,0.00,,---,0.00,VWS V14.01,2013-10-08 04:06:00,
2013-10-08 00:11:00,47.0,45.7,30.13,WSW,248,3.0,6.0,95,0.00,,---,0.00,VWS V14.01,2013-10-08 04:11:00,
2013-10-08 00:16:00,47.0,45.7,30.13,SW,225,3.0,6.0,95,0.00,,---,0.00,VWS V14.01,2013-10-08 04:16:00,
2013-10-08 00:21:00,47.0,45.7,30.13,SW,225,3.0,3.0,95,0.00,,---,0.00,VWS V14.01,2013-10-08 04:21:00,
2013-10-08 00:26:00,47.0,45.7,30.13,SW,225,3.0,5.0,95,0.01,,---,0.01,VWS V14.01,2013-10-08 04:26:00,
2013-10-08 00:31:00,47.0,45.7,30.13,SW,225,3.0,5.0,95,0.01,,---,0.01,VWS V14.01,2013-10-08 04:31:00,
2013-10-08 00:36:00,46.0,44.9,30.13,SW,225,4.0,5.0,96,0.01,,---,0.01,VWS V14.01,2013-10-08 04:36:00,
2013-10-08 00:41:00,46.0,44.9,30.14,South,180,2.0,3.0,96,0.01,,---,0.01,VWS V14.01,2013-10-08 04:41:00,
2013-10-08 00:47:00,46.0,44.9,30.14,SW,225,3.0,4.0,96,0.01,,---,0.01,VWS V14.01,2013-10-08 04:47:00,
2013-10-08 00:52:00,46.0,44.9,30.14,SW,225,3.0,5.0,96,0.01,,---,0.01,VWS V14.01,2013-10-08 04:52:00,
2013-10-08 00:57:00,46.0,44.9,30.14,WSW,248,2.0,5.0,96,0.01,,---,0.01,VWS V14.01,2013-10-08 04:57:00,
2013-10-08 01:02:00,46.0,44.9,30.14,SW,225,1.0,3.0,96,0.01,,---,0.01,VWS V14.01,2013-10-08 05:02:00,
2013-10-08 01:07:00,46.0,44.9,30.14,SW,225,2.0,3.0,96,0.01,,---,0.01,VWS V14.01,2013-10-08 05:07:00,
2013-10-08 01:12:00,46.0,44.9,30.14,SSW,202,0.0,5.0,96,0.01,,---,0.01,VWS V14.01,2013-10-08 05:12:00,
2013-10-08 01:17:00,46.0,44.9,30.14,SW,225,2.0,5.0,96,0.01,,---,0.01,VWS V14.01,2013-10-08 05:17:00,
2013-10-08 01:23:00,46.0,44.9,30.14,SW,225,0.0,2.0,96,0.01,,---,0.01,VWS V14.01,2013-10-08 05:23:00,
2013-10-08 01:28:00,46.0,44.9,30.14,NE,45,2.0,3.0,96,0.01,,---,0.01,VWS V14.01,2013-10-08 05:28:00,
2013-10-08 01:33:00,45.0,43.9,30.14,ENE,68,1.0,3.0,96,0.01,,---,0.01,VWS V14.01,2013-10-08 05:33:00,
2013-10-08 01:38:00,46.0,45.2,30.15,East,90,1.0,3.0,97,0.01,,---,0.01,VWS V14.01,2013-10-08 05:38:00,
2013-10-08 01:43:00,46.0,45.2,30.16,East,90,0.0,1.0,97,0.00,,---,0.01,VWS V14.01,2013-10-08 05:43:00,
2013-10-08 01:48:00,46.0,45.2,30.15,East,90,0.0,1.0,97,0.00,,---,0.01,VWS V14.01,2013-10-08 05:48:00,
2013-10-08 01:53:00,46.0,45.2,30.16,SSW,202,1.0,3.0,97,0.00,,---,0.01,VWS V14.01,2013-10-08 05:53:00,
2013-10-08 01:58:00,46.0,45.2,30.16,SW,225,1.0,3.0,97,0.00,,---,0.01,VWS V14.01,2013-10-08 05:58:00,
2013-10-08 02:03:00,46.0,45.2,30.16,SW,225,0.0,2.0,97,0.00,,---,0.01,VWS V14.01,2013-10-08 06:03:00,
2013-10-08 02:09:00,46.0,45.2,30.16,SW,225,0.0,2.0,97,0.00,,---,0.01,VWS V14.01,2013-10-08 06:09:00,
2013-10-08 02:14:00,46.0,45.2,30.16,SW,225,0.0,2.0,97,0.00,,---,0.01,VWS V14.01,2013-10-08 06:14:00,
2013-10-08 02:19:00,46.0,45.2,30.16,SW,225,0.0,2.0,97,0.00,,---,0.01,VWS V14.01,2013-10-08 06:19:00,
2013-10-08 02:24:00,45.0,44.2,30.16,SW,225,0.0,1.0,97,0.00,,---,0.01,VWS V14.01,2013-10-08 06:24:00,
2013-10-08 02:29:00,45.0,44.2,30.16,SW,225,1.0,1.0,97,0.00,,---,0.01,VWS V14.01,2013-10-08 06:29:00,
2013-10-08 02:34:00,45.0,44.2,30.16,SW,225,0.0,1.0,97,0.00,,---,0.01,VWS V14.01,2013-10-08 06:34:00,
2013-10-08 02:39:00,45.0,44.2,30.16,SSW,202,0.0,1.0,97,0.00,,---,0.01,VWS V14.01,2013-10-08 06:39:00,
2013-10-08 02:44:00,45.0,44.2,30.16,SSW,202,1.0,1.0,97,0.00,,---,0.01,VWS V14.01,2013-10-08 06:44:00,
2013-10-08 02:49:00,46.0,45.5,30.16,SSW,202,0.0,1.0,98,0.00,,---,0.01,VWS V14.01,2013-10-08 06:49:00,
2013-10-08 02:55:00,46.0,45.5,30.16,SSW,202,1.0,1.0,98,0.00,,---,0.01,VWS V14.01,2013-10-08 06:55:00,
2013-10-08 03:00:00,46.0,45.5,30.16,SSW,202,1.0,2.0,98,0.00,,---,0.01,VWS V14.01,2013-10-08 07:00:00,
2013-10-08 03:05:00,46.0,45.5,30.16,SW,225,0.0,3.0,98,0.00,,---,0.01,VWS V14.01,2013-10-08 07:05:00,
2013-10-08 03:10:00,46.0,45.5,30.16,South,180,0.0,3.0,98,0.00,,---,0.01,VWS V14.01,2013-10-08 07:10:00,
2013-10-08 03:15:00,46.0,45.5,30.16,South,180,0.0,3.0,98,0.00,,---,0.01,VWS V14.01,2013-10-08 07:15:00,
2013-10-08 03:20:00,46.0,45.5,30.17,South,180,0.0,0.0,98,0.00,,---,0.01,VWS V14.01,2013-10-08 07:20:00,
2013-10-08 03:25:00,46.0,45.5,30.17,South,180,0.0,1.0,98,0.00,,---,0.01,VWS V14.01,2013-10-08 07:25:00,
2013-10-08 03:30:00,46.0,45.5,30.17,South,180,1.0,1.0,98,0.00,,---,0.01,VWS V14.01,2013-10-08 07:30:00,
2013-10-08 03:35:00,46.0,45.5,30.17,SW,225,1.0,2.0,98,0.00,,---,0.01,VWS V14.01,2013-10-08 07:35:00,
2013-10-08 03:41:00,46.0,45.5,30.17,SW,225,1.0,1.0,98,0.00,,---,0.01,VWS V14.01,2013-10-08 07:41:00,
2013-10-08 03:46:00,45.0,44.5,30.17,SSE,158,1.0,1.0,98,0.00,,---,0.01,VWS V14.01,2013-10-08 07:46:00,
2013-10-08 03:51:00,45.0,44.5,30.18,ESE,112,1.0,1.0,98,0.00,,---,0.01,VWS V14.01,2013-10-08 07:51:00,
2013-10-08 03:56:00,45.0,44.5,30.18,ESE,112,0.0,1.0,98,0.00,,---,0.01,VWS V14.01,2013-10-08 07:56:00,
2013-10-08 04:01:00,45.0,44.5,30.18,ESE,112,0.0,1.0,98,0.00,,---,0.01,VWS V14.01,2013-10-08 08:01:00,
2013-10-08 04:06:00,45.0,44.5,30.18,ESE,112,0.0,1.0,98,0.00,,---,0.01,VWS V14.01,2013-10-08 08:06:00,
2013-10-08 04:11:00,45.0,44.5,30.19,ESE,112,0.0,1.0,98,0.00,,---,0.01,VWS V14.01,2013-10-08 08:11:00,
2013-10-08 04:16:00,45.0,44.5,30.19,SE,135,1.0,2.0,98,0.00,,---,0.01,VWS V14.01,2013-10-08 08:16:00,
2013-10-08 04:21:00,45.0,44.5,30.19,SE,135,1.0,1.0,98,0.00,,---,0.01,VWS V14.01,2013-10-08 08:21:00,
2013-10-08 04:27:00,45.0,44.5,30.19,SE,135,1.0,2.0,98,0.00,,---,0.01,VWS V14.01,2013-10-08 08:27:00,
2013-10-08 04:32:00,45.0,44.5,30.20,SE,135,0.0,2.0,98,0.00,,---,0.01,VWS V14.01,2013-10-08 08:32:00,
2013-10-08 04:37:00,44.0,43.5,30.20,SE,135,0.0,2.0,98,0.00,,---,0.01,VWS V14.01,2013-10-08 08:37:00,
2013-10-08 04:42:00,44.0,43.5,30.20,ESE,112,3.0,3.0,98,0.00,,---,0.01,VWS V14.01,2013-10-08 08:42:00,
2013-10-08 04:47:00,44.0,43.5,30.20,ESE,112,1.0,3.0,98,0.00,,---,0.01,VWS V14.01,2013-10-08 08:47:00,
2013-10-08 04:52:00,44.0,43.5,30.20,SE,135,0.0,3.0,98,0.00,,---,0.01,VWS V14.01,2013-10-08 08:52:00,
2013-10-08 04:57:00,44.0,43.5,30.20,SE,135,1.0,3.0,98,0.00,,---,0.01,VWS V14.01,2013-10-08 08:57:00,
2013-10-08 05:02:00,44.0,43.5,30.21,SE,135,1.0,3.0,98,0.00,,---,0.01,VWS V14.01,2013-10-08 09:02:00,
2013-10-08 05:07:00,44.0,43.5,30.21,SSE,158,0.0,3.0,98,0.00,,---,0.01,VWS V14.01,2013-10-08 09:07:00,
2013-10-08 05:12:00,43.0,42.5,30.21,SSE,158,0.0,3.0,98,0.00,,---,0.01,VWS V14.01,2013-10-08 09:12:00,
2013-10-08 05:17:00,43.0,42.5,30.21,South,180,1.0,3.0,98,0.00,,---,0.01,VWS V14.01,2013-10-08 09:17:00,
2013-10-08 05:22:00,43.0,42.5,30.21,SSW,202,0.0,1.0,98,0.00,,---,0.01,VWS V14.01,2013-10-08 09:22:00,
2013-10-08 05:27:00,43.0,42.5,30.21,SSW,202,0.0,1.0,98,0.00,,---,0.01,VWS V14.01,2013-10-08 09:27:00,
2013-10-08 05:32:00,43.0,42.5,30.22,SSW,202,0.0,1.0,98,0.00,,---,0.01,VWS V14.01,2013-10-08 09:32:00,
2013-10-08 05:38:00,42.0,41.5,30.22,SSW,202,1.0,1.0,98,0.00,,---,0.01,VWS V14.01,2013-10-08 09:38:00,
2013-10-08 05:43:00,42.0,41.7,30.22,SE,135,0.0,2.0,99,0.00,,---,0.01,VWS V14.01,2013-10-08 09:43:00,
2013-10-08 05:48:00,42.0,41.7,30.23,SE,135,0.0,2.0,99,0.00,,---,0.01,VWS V14.01,2013-10-08 09:48:00,
2013-10-08 05:53:00,42.0,41.7,30.23,ESE,112,1.0,2.0,99,0.00,,---,0.01,VWS V14.01,2013-10-08 09:53:00,
2013-10-08 05:58:00,42.0,41.5,30.23,SE,135,1.0,2.0,98,0.00,,---,0.01,VWS V14.01,2013-10-08 09:58:00,
2013-10-08 06:03:00,42.0,41.7,30.23,WSW,248,3.0,4.0,99,0.00,,---,0.01,VWS V14.01,2013-10-08 10:03:00,
2013-10-08 06:08:00,42.0,41.7,30.24,WSW,248,2.0,4.0,99,0.00,,---,0.01,VWS V14.01,2013-10-08 10:08:00,
2013-10-08 06:13:00,42.0,41.7,30.24,WSW,248,0.0,4.0,99,0.00,,---,0.01,VWS V14.01,2013-10-08 10:13:00,
2013-10-08 06:18:00,42.0,41.7,30.24,WSW,248,1.0,4.0,99,0.00,,---,0.01,VWS V14.01,2013-10-08 10:18:00,
2013-10-08 06:23:00,42.0,41.7,30.24,ESE,112,1.0,2.0,99,0.00,,---,0.01,VWS V14.01,2013-10-08 10:23:00,
2013-10-08 06:28:00,41.0,40.7,30.24,ESE,112,1.0,2.0,99,0.00,,---,0.01,VWS V14.01,2013-10-08 10:28:00,
2013-10-08 06:33:00,41.0,40.7,30.25,WSW,248,1.0,2.0,99,0.00,,---,0.01,VWS V14.01,2013-10-08 10:33:00,
2013-10-08 06:38:00,41.0,40.7,30.25,WSW,248,1.0,2.0,99,0.00,,---,0.01,VWS V14.01,2013-10-08 10:38:00,
2013-10-08 06:43:00,41.0,40.7,30.25,West,270,1.0,2.0,99,0.00,,---,0.01,VWS V14.01,2013-10-08 10:43:00,
2013-10-08 06:49:00,41.0,40.7,30.25,WSW,248,1.0,2.0,99,0.00,,---,0.01,VWS V14.01,2013-10-08 10:49:00,
2013-10-08 06:54:00,41.0,40.7,30.26,WSW,248,0.0,2.0,99,0.00,,---,0.01,VWS V14.01,2013-10-08 10:54:00,
2013-10-08 06:59:00,41.0,40.7,30.26,WSW,248,0.0,2.0,99,0.00,,---,0.01,VWS V14.01,2013-10-08 10:59:00,
2013-10-08 07:04:00,41.0,40.7,30.26,SW,225,0.0,1.0,99,0.00,,---,0.01,VWS V14.01,2013-10-08 11:04:00,
2013-10-08 07:09:00,41.0,40.7,30.26,WSW,248,1.0,2.0,99,0.00,,---,0.01,VWS V14.01,2013-10-08 11:09:00,
2013-10-08 07:14:00,41.0,40.7,30.27,WSW,248,1.0,2.0,99,0.00,,---,0.01,VWS V14.01,2013-10-08 11:14:00,
2013-10-08 07:19:00,41.0,40.7,30.27,WSW,248,0.0,2.0,99,0.00,,---,0.01,VWS V14.01,2013-10-08 11:19:00,
2013-10-08 07:24:00,41.0,40.7,30.27,SE,135,2.0,2.0,99,0.00,,---,0.01,VWS V14.01,2013-10-08 11:24:00,
2013-10-08 07:29:00,41.0,40.7,30.28,SE,135,0.0,2.0,99,0.00,,---,0.01,VWS V14.01,2013-10-08 11:29:00,
2013-10-08 07:34:00,41.0,40.7,30.28,SE,135,1.0,2.0,99,0.00,,---,0.01,VWS V14.01,2013-10-08 11:34:00,
2013-10-08 07:39:00,41.0,40.7,30.28,SE,135,0.0,2.0,99,0.00,,---,0.01,VWS V14.01,2013-10-08 11:39:00,
2013-10-08 07:44:00,42.0,41.7,30.29,SE,135,1.0,1.0,99,0.00,,---,0.01,VWS V14.01,2013-10-08 11:44:00,
2013-10-08 07:50:00,42.0,41.7,30.29,SE,135,0.0,1.0,99,0.00,,---,0.01,VWS V14.01,2013-10-08 11:50:00,
2013-10-08 07:55:00,42.0,41.7,30.29,SSE,158,0.0,1.0,99,0.00,,---,0.01,VWS V14.01,2013-10-08 11:55:00,
2013-10-08 08:00:00,42.0,41.7,30.29,SE,135,0.0,1.0,99,0.00,,---,0.01,VWS V14.01,2013-10-08 12:00:00,
2013-10-08 08:05:00,43.0,43.0,30.29,SE,135,0.0,1.0,100,0.00,,---,0.01,VWS V14.01,2013-10-08 12:05:00,
2013-10-08 08:10:00,43.0,43.0,30.30,SE,135,0.0,1.0,100,0.00,,---,0.01,VWS V14.01,2013-10-08 12:10:00,
2013-10-08 08:15:00,43.0,43.0,30.30,SE,135,0.0,1.0,100,0.00,,---,0.01,VWS V14.01,2013-10-08 12:15:00,
2013-10-08 08:20:00,44.0,44.0,30.30,SE,135,0.0,1.0,100,0.00,,---,0.01,VWS V14.01,2013-10-08 12:20:00,
2013-10-08 08:25:00,44.0,44.0,30.31,ESE,112,1.0,1.0,100,0.00,,---,0.01,VWS V14.01,2013-10-08 12:25:00,
2013-10-08 08:30:00,44.0,44.0,30.31,East,90,1.0,2.0,100,0.00,,---,0.01,VWS V14.01,2013-10-08 12:30:00,
2013-10-08 08:35:00,44.0,43.7,30.31,East,90,1.0,2.0,99,0.00,,---,0.01,VWS V14.01,2013-10-08 12:35:00,
2013-10-08 08:40:00,44.0,43.7,30.31,ESE,112,1.0,1.0,99,0.00,,---,0.01,VWS V14.01,2013-10-08 12:40:00,
2013-10-08 08:45:00,44.0,44.0,30.31,SSE,158,1.0,1.0,100,0.00,,---,0.01,VWS V14.01,2013-10-08 12:45:00,
2013-10-08 08:50:00,44.0,43.7,30.31,SSE,158,0.0,1.0,99,0.00,,---,0.01,VWS V14.01,2013-10-08 12:50:00,
2013-10-08 08:56:00,44.0,43.7,30.32,SSE,158,0.0,1.0,99,0.00,,---,0.01,VWS V14.01,2013-10-08 12:56:00,
2013-10-08 09:01:00,44.0,44.0,30.32,SSE,158,1.0,1.0,100,0.01,,---,0.02,VWS V14.01,2013-10-08 13:01:00,
2013-10-08 09:06:00,45.0,45.0,30.32,SSE,158,0.0,1.0,100,0.01,,---,0.02,VWS V14.01,2013-10-08 13:06:00,
2013-10-08 09:11:00,45.0,45.0,30.32,ENE,68,1.0,2.0,100,0.01,,---,0.02,VWS V14.01,2013-10-08 13:11:00,
2013-10-08 09:16:00,45.0,44.7,30.33,ENE,68,1.0,3.0,99,0.01,,---,0.02,VWS V14.01,2013-10-08 13:16:00,
2013-10-08 09:21:00,45.0,44.7,30.33,ENE,68,1.0,2.0,99,0.01,,---,0.02,VWS V14.01,2013-10-08 13:21:00,
2013-10-08 09:26:00,45.0,44.7,30.33,ESE,112,2.0,2.0,99,0.01,,---,0.02,VWS V14.01,2013-10-08 13:26:00,
2013-10-08 09:31:00,45.0,45.0,30.33,East,90,1.0,3.0,100,0.01,,---,0.02,VWS V14.01,2013-10-08 13:31:00,
2013-10-08 09:36:00,45.0,45.0,30.33,ESE,112,2.0,3.0,100,0.01,,---,0.02,VWS V14.01,2013-10-08 13:36:00,
2013-10-08 09:41:00,46.0,46.0,30.33,ENE,68,1.0,1.0,100,0.01,,---,0.02,VWS V14.01,2013-10-08 13:41:00,
2013-10-08 09:46:00,46.0,46.0,30.33,ENE,68,0.0,2.0,100,0.01,,---,0.02,VWS V14.01,2013-10-08 13:46:00,
2013-10-08 09:51:00,47.0,47.0,30.34,ENE,68,1.0,2.0,100,0.01,,---,0.02,VWS V14.01,2013-10-08 13:51:00,
2013-10-08 09:56:00,47.0,47.0,30.34,NE,45,0.0,2.0,100,0.01,,---,0.02,VWS V14.01,2013-10-08 13:56:00,
2013-10-08 10:02:00,48.0,48.0,30.34,NNE,22,1.0,1.0,100,0.00,,---,0.02,VWS V14.01,2013-10-08 14:02:00,
2013-10-08 10:07:00,48.0,48.0,30.34,NNE,22,1.0,2.0,100,0.00,,---,0.02,VWS V14.01,2013-10-08 14:07:00,
2013-10-08 10:12:00,48.0,47.7,30.34,NE,45,1.0,3.0,99,0.00,,---,0.02,VWS V14.01,2013-10-08 14:12:00,
2013-10-08 10:17:00,48.0,48.0,30.34,North,0,1.0,3.0,100,0.00,,---,0.02,VWS V14.01,2013-10-08 14:17:00,
2013-10-08 10:22:00,48.0,48.0,30.34,NNW,338,3.0,4.0,100,0.00,,---,0.02,VWS V14.01,2013-10-08 14:22:00,
2013-10-08 10:27:00,49.0,49.0,30.34,NNW,338,0.0,4.0,100,0.00,,---,0.02,VWS V14.01,2013-10-08 14:27:00,
2013-10-08 10:32:00,49.0,48.7,30.34,North,0,2.0,4.0,99,0.00,,---,0.02,VWS V14.01,2013-10-08 14:32:00,
2013-10-08 10:37:00,49.0,48.7,30.34,North,0,1.0,4.0,99,0.00,,---,0.02,VWS V14.01,2013-10-08 14:37:00,
2013-10-08 10:42:00,49.0,48.7,30.34,North,0,2.0,3.0,99,0.00,,---,0.02,VWS V14.01,2013-10-08 14:42:00,
2013-10-08 10:47:00,49.0,48.7,30.34,NNW,338,2.0,3.0,99,0.00,,---,0.02,VWS V14.01,2013-10-08 14:47:00,
2013-10-08 10:52:00,50.0,49.7,30.34,North,0,1.0,3.0,99,0.00,,---,0.02,VWS V14.01,2013-10-08 14:52:00,
2013-10-08 10:57:00,50.0,49.7,30.34,NNW,338,1.0,3.0,99,0.00,,---,0.02,VWS V14.01,2013-10-08 14:57:00,
2013-10-08 11:02:00,51.0,50.5,30.34,WNW,292,1.0,1.0,98,0.00,,---,0.02,VWS V14.01,2013-10-08 15:02:00,
2013-10-08 11:07:00,52.0,51.5,30.34,NE,45,1.0,2.0,98,0.00,,---,0.02,VWS V14.01,2013-10-08 15:07:00,
2013-10-08 11:13:00,53.0,52.2,30.34,NE,45,1.0,2.0,97,0.00,,---,0.02,VWS V14.01,2013-10-08 15:13:00,
2013-10-08 11:18:00,53.0,51.3,30.34,North,0,1.0,3.0,94,0.00,,---,0.02,VWS V14.01,2013-10-08 15:18:00,
2013-10-08 11:23:00,54.0,50.2,30.34,NNW,338,1.0,2.0,87,0.00,,---,0.02,VWS V14.01,2013-10-08 15:23:00,
2013-10-08 11:28:00,55.0,49.9,30.34,NE,45,1.0,2.0,83,0.00,,---,0.02,VWS V14.01,2013-10-08 15:28:00,
2013-10-08 11:33:00,56.0,50.3,30.34,NNE,22,2.0,5.0,81,0.00,,---,0.02,VWS V14.01,2013-10-08 15:33:00,
2013-10-08 11:38:00,57.0,48.8,30.34,NW,315,1.0,5.0,74,0.00,,---,0.02,VWS V14.01,2013-10-08 15:38:00,
2013-10-08 11:43:00,57.0,47.3,30.34,NW,315,1.0,3.0,70,0.00,,---,0.02,VWS V14.01,2013-10-08 15:43:00,
2013-10-08 11:48:00,58.0,48.3,30.35,NNW,338,2.0,3.0,70,0.00,,---,0.02,VWS V14.01,2013-10-08 15:48:00,
2013-10-08 11:53:00,58.0,47.5,30.35,North,0,1.0,3.0,68,0.00,,---,0.02,VWS V14.01,2013-10-08 15:53:00,
2013-10-08 11:58:00,59.0,47.3,30.35,NNW,338,3.0,3.0,65,0.00,,---,0.02,VWS V14.01,2013-10-08 15:58:00,
2013-10-08 12:03:00,59.0,45.2,30.35,NE,45,1.0,2.0,60,0.00,,---,0.02,VWS V14.01,2013-10-08 16:03:00,
2013-10-08 12:08:00,60.0,46.5,30.34,ESE,112,3.0,3.0,61,0.00,,---,0.02,VWS V14.01,2013-10-08 16:08:00,
2013-10-08 12:13:00,60.0,45.7,30.34,NNW,338,1.0,5.0,59,0.00,,---,0.02,VWS V14.01,2013-10-08 16:13:00,
2013-10-08 12:19:00,61.0,47.5,30.34,NE,45,2.0,5.0,61,0.00,,---,0.02,VWS V14.01,2013-10-08 16:19:00,
2013-10-08 12:24:00,61.0,47.5,30.34,North,0,3.0,5.0,61,0.00,,---,0.02,VWS V14.01,2013-10-08 16:24:00,
2013-10-08 12:29:00,61.0,46.6,30.35,NNW,338,3.0,5.0,59,0.00,,---,0.02,VWS V14.01,2013-10-08 16:29:00,
2013-10-08 12:34:00,60.0,45.2,30.35,North,0,3.0,5.0,58,0.00,,---,0.02,VWS V14.01,2013-10-08 16:34:00,
2013-10-08 12:39:00,60.0,45.7,30.35,North,0,3.0,5.0,59,0.00,,---,0.02,VWS V14.01,2013-10-08 16:39:00,
2013-10-08 12:44:00,61.0,47.5,30.34,NNW,338,5.0,6.0,61,0.00,,---,0.02,VWS V14.01,2013-10-08 16:44:00,
2013-10-08 12:49:00,61.0,45.7,30.35,North,0,3.0,6.0,57,0.00,,---,0.02,VWS V14.01,2013-10-08 16:49:00,
2013-10-08 12:54:00,61.0,46.6,30.34,NNW,338,1.0,6.0,59,0.00,,---,0.02,VWS V14.01,2013-10-08 16:54:00,
2013-10-08 12:59:00,62.0,47.5,30.34,NW,315,3.0,6.0,59,0.00,,---,0.02,VWS V14.01,2013-10-08 16:59:00,
2013-10-08 13:04:00,61.0,44.7,30.34,WSW,248,1.0,5.0,55,0.00,,---,0.02,VWS V14.01,2013-10-08 17:04:00,
2013-10-08 13:09:00,61.0,45.7,30.34,WSW,248,1.0,5.0,57,0.00,,---,0.02,VWS V14.01,2013-10-08 17:09:00,
2013-10-08 13:14:00,61.0,44.2,30.34,NW,315,4.0,5.0,54,0.00,,---,0.02,VWS V14.01,2013-10-08 17:14:00,
2013-10-08 13:19:00,61.0,45.2,30.34,NE,45,1.0,5.0,56,0.00,,---,0.02,VWS V14.01,2013-10-08 17:19:00,
2013-10-08 13:25:00,61.0,45.7,30.34,NE,45,2.0,5.0,57,0.00,,---,0.02,VWS V14.01,2013-10-08 17:25:00,
2013-10-08 13:30:00,61.0,45.2,30.33,NE,45,3.0,5.0,56,0.00,,---,0.02,VWS V14.01,2013-10-08 17:30:00,
2013-10-08 13:35:00,62.0,46.6,30.33,North,0,4.0,6.0,57,0.00,,---,0.02,VWS V14.01,2013-10-08 17:35:00,
2013-10-08 13:40:00,62.0,44.7,30.33,North,0,3.0,6.0,53,0.00,,---,0.02,VWS V14.01,2013-10-08 17:40:00,
2013-10-08 13:45:00,62.0,45.7,30.33,NNW,338,4.0,5.0,55,0.00,,---,0.02,VWS V14.01,2013-10-08 17:45:00,
2013-10-08 13:50:00,62.0,44.7,30.33,NNW,338,5.0,6.0,53,0.00,,---,0.02,VWS V14.01,2013-10-08 17:50:00,
2013-10-08 13:55:00,61.0,45.2,30.33,WNW,292,2.0,6.0,56,0.00,,---,0.02,VWS V14.01,2013-10-08 17:55:00,
2013-10-08 14:00:00,62.0,46.6,30.33,NNE,22,1.0,4.0,57,0.00,,---,0.02,VWS V14.01,2013-10-08 18:00:00,
2013-10-08 14:05:00,62.0,45.2,30.33,NW,315,3.0,5.0,54,0.00,,---,0.02,VWS V14.01,2013-10-08 18:05:00,
2013-10-08 14:10:00,62.0,44.7,30.32,ESE,112,2.0,5.0,53,0.00,,---,0.02,VWS V14.01,2013-10-08 18:10:00,
2013-10-08 14:15:00,63.0,44.1,30.32,SW,225,3.0,6.0,50,0.00,,---,0.02,VWS V14.01,2013-10-08 18:15:00,
2013-10-08 14:21:00,63.0,42.5,30.32,NW,315,3.0,5.0,47,0.00,,---,0.02,VWS V14.01,2013-10-08 18:21:00,
2013-10-08 14:26:00,63.0,43.0,30.32,WSW,248,1.0,6.0,48,0.00,,---,0.02,VWS V14.01,2013-10-08 18:26:00,
2013-10-08 14:31:00,64.0,45.0,30.32,NNW,338,2.0,6.0,50,0.00,,---,0.02,VWS V14.01,2013-10-08 18:31:00,
2013-10-08 14:36:00,64.0,45.5,30.32,NNE,22,4.0,7.0,51,0.00,,---,0.02,VWS V14.01,2013-10-08 18:36:00,
2013-10-08 14:41:00,64.0,43.9,30.32,NW,315,2.0,8.0,48,0.00,,---,0.02,VWS V14.01,2013-10-08 18:41:00,
2013-10-08 14:46:00,63.0,43.6,30.32,NW,315,1.0,8.0,49,0.00,,---,0.02,VWS V14.01,2013-10-08 18:46:00,
2013-10-08 14:51:00,63.0,43.0,30.32,NE,45,3.0,8.0,48,0.00,,---,0.02,VWS V14.01,2013-10-08 18:51:00,
2013-10-08 14:56:00,64.0,45.0,30.32,North,0,1.0,8.0,50,0.00,,---,0.02,VWS V14.01,2013-10-08 18:56:00,
2013-10-08 15:01:00,64.0,44.5,30.32,North,0,1.0,6.0,49,0.00,,---,0.02,VWS V14.01,2013-10-08 19:01:00,
2013-10-08 15:07:00,64.0,45.0,30.32,North,0,3.0,7.0,50,0.00,,---,0.02,VWS V14.01,2013-10-08 19:07:00,
2013-10-08 15:12:00,63.0,42.5,30.32,North,0,2.0,7.0,47,0.00,,---,0.02,VWS V14.01,2013-10-08 19:12:00,
2013-10-08 15:17:00,64.0,43.4,30.32,North,0,3.0,7.0,47,0.00,,---,0.02,VWS V14.01,2013-10-08 19:17:00,
2013-10-08 15:22:00,63.0,43.0,30.33,NNW,338,2.0,4.0,48,0.00,,---,0.02,VWS V14.01,2013-10-08 19:22:00,
2013-10-08 15:27:00,62.0,42.1,30.33,NE,45,3.0,4.0,48,0.00,,---,0.02,VWS V14.01,2013-10-08 19:27:00,
2013-10-08 15:32:00,63.0,43.6,30.33,East,90,1.0,4.0,49,0.00,,---,0.02,VWS V14.01,2013-10-08 19:32:00,
2013-10-08 15:37:00,63.0,41.9,30.33,ESE,112,2.0,5.0,46,0.00,,---,0.02,VWS V14.01,2013-10-08 19:37:00,
2013-10-08 15:42:00,63.0,43.0,30.32,NNW,338,2.0,4.0,48,0.00,,---,0.02,VWS V14.01,2013-10-08 19:42:00,
2013-10-08 15:47:00,64.0,42.3,30.32,North,0,1.0,4.0,45,0.00,,---,0.02,VWS V14.01,2013-10-08 19:47:00,
2013-10-08 15:53:00,64.0,42.8,30.32,NNE,22,2.0,4.0,46,0.00,,---,0.02,VWS V14.01,2013-10-08 19:53:00,
2013-10-08 15:58:00,64.0,43.4,30.32,NW,315,2.0,5.0,47,0.00,,---,0.02,VWS V14.01,2013-10-08 19:58:00,
2013-10-08 16:03:00,64.0,43.9,30.32,North,0,3.0,5.0,48,0.00,,---,0.02,VWS V14.01,2013-10-08 20:03:00,
2013-10-08 16:08:00,64.0,42.8,30.31,NNW,338,4.0,6.0,46,0.00,,---,0.02,VWS V14.01,2013-10-08 20:08:00,
2013-10-08 16:13:00,63.0,43.0,30.31,NNW,338,3.0,7.0,48,0.00,,---,0.02,VWS V14.01,2013-10-08 20:13:00,
2013-10-08 16:18:00,63.0,41.9,30.31,NNW,338,4.0,7.0,46,0.00,,---,0.02,VWS V14.01,2013-10-08 20:18:00,
2013-10-08 16:23:00,63.0,42.5,30.31,WNW,292,1.0,6.0,47,0.00,,---,0.02,VWS V14.01,2013-10-08 20:23:00,
2013-10-08 16:28:00,63.0,42.5,30.31,WNW,292,1.0,6.0,47,0.00,,---,0.02,VWS V14.01,2013-10-08 20:28:00,
2013-10-08 16:34:00,64.0,44.5,30.31,West,270,1.0,6.0,49,0.00,,---,0.02,VWS V14.01,2013-10-08 20:34:00,
2013-10-08 16:39:00,64.0,43.9,30.31,NW,315,1.0,6.0,48,0.00,,---,0.02,VWS V14.01,2013-10-08 20:39:00,
2013-10-08 16:44:00,64.0,43.4,30.31,NNW,338,3.0,5.0,47,0.00,,---,0.02,VWS V14.01,2013-10-08 20:44:00,
2013-10-08 16:49:00,64.0,43.4,30.31,WNW,292,1.0,5.0,47,0.00,,---,0.02,VWS V14.01,2013-10-08 20:49:00,
2013-10-08 16:54:00,64.0,43.4,30.31,NW,315,2.0,7.0,47,0.00,,---,0.02,VWS V14.01,2013-10-08 20:54:00,
2013-10-08 16:59:00,64.0,43.4,30.31,West,270,2.0,7.0,47,0.00,,---,0.02,VWS V14.01,2013-10-08 20:59:00,
2013-10-08 17:04:00,63.0,43.6,30.31,NNW,338,1.0,7.0,49,0.00,,---,0.02,VWS V14.01,2013-10-08 21:04:00,
2013-10-08 17:10:00,63.0,43.0,30.31,NNW,338,5.0,7.0,48,0.00,,---,0.02,VWS V14.01,2013-10-08 21:10:00,
2013-10-08 17:15:00,63.0,43.0,30.31,WNW,292,0.0,7.0,48,0.00,,---,0.02,VWS V14.01,2013-10-08 21:15:00,
2013-10-08 17:20:00,63.0,44.1,30.31,WNW,292,5.0,7.0,50,0.00,,---,0.02,VWS V14.01,2013-10-08 21:20:00,
2013-10-08 17:25:00,63.0,43.6,30.31,NW,315,5.0,6.0,49,0.00,,---,0.02,VWS V14.01,2013-10-08 21:25:00,
2013-10-08 17:30:00,63.0,43.6,30.31,WNW,292,6.0,8.0,49,0.00,,---,0.02,VWS V14.01,2013-10-08 21:30:00,
2013-10-08 17:35:00,63.0,44.1,30.31,NW,315,6.0,8.0,50,0.00,,---,0.02,VWS V14.01,2013-10-08 21:35:00,
2013-10-08 17:40:00,62.0,43.2,30.31,WSW,248,4.0,6.0,50,0.00,,---,0.02,VWS V14.01,2013-10-08 21:40:00,
2013-10-08 17:45:00,62.0,43.7,30.31,WNW,292,3.0,10.0,51,0.00,,---,0.02,VWS V14.01,2013-10-08 21:45:00,
2013-10-08 17:51:00,61.0,44.2,30.31,WNW,292,4.0,10.0,54,0.00,,---,0.02,VWS V14.01,2013-10-08 21:51:00,
2013-10-08 17:56:00,61.0,43.8,30.31,NW,315,3.0,10.0,53,0.00,,---,0.02,VWS V14.01,2013-10-08 21:56:00,
2013-10-08 18:01:00,61.0,44.7,30.31,NW,315,3.0,8.0,55,0.00,,---,0.02,VWS V14.01,2013-10-08 22:01:00,
2013-10-08 18:06:00,61.0,44.7,30.32,WNW,292,5.0,8.0,55,0.00,,---,0.02,VWS V14.01,2013-10-08 22:06:00,
2013-10-08 18:11:00,61.0,44.2,30.32,NNW,338,3.0,8.0,54,0.00,,---,0.02,VWS V14.01,2013-10-08 22:11:00,
2013-10-08 18:16:00,60.0,42.3,30.32,NW,315,3.0,8.0,52,0.00,,---,0.02,VWS V14.01,2013-10-08 22:16:00,
2013-10-08 18:21:00,60.0,43.3,30.32,NNW,338,3.0,7.0,54,0.00,,---,0.02,VWS V14.01,2013-10-08 22:21:00,
2013-10-08 18:26:00,59.0,43.3,30.32,NW,315,3.0,8.0,56,0.00,,---,0.02,VWS V14.01,2013-10-08 22:26:00,
2013-10-08 18:32:00,59.0,43.3,30.32,North,0,6.0,8.0,56,0.00,,---,0.02,VWS V14.01,2013-10-08 22:32:00,
2013-10-08 18:37:00,58.0,42.9,30.32,NNW,338,1.0,8.0,57,0.00,,---,0.02,VWS V14.01,2013-10-08 22:37:00,
2013-10-08 18:42:00,58.0,43.3,30.32,NNW,338,1.0,4.0,58,0.00,,---,0.02,VWS V14.01,2013-10-08 22:42:00,
2013-10-08 18:47:00,57.0,42.8,30.32,NW,315,0.0,4.0,59,0.00,,---,0.02,VWS V14.01,2013-10-08 22:47:00,
2013-10-08 18:52:00,57.0,43.3,30.32,NNW,338,3.0,4.0,60,0.00,,---,0.02,VWS V14.01,2013-10-08 22:52:00,
2013-10-08 18:57:00,56.0,42.8,30.32,WNW,292,0.0,4.0,61,0.00,,---,0.02,VWS V14.01,2013-10-08 22:57:00,
2013-10-08 19:02:00,56.0,43.2,30.33,NNW,338,3.0,3.0,62,0.00,,---,0.02,VWS V14.01,2013-10-08 23:02:00,
2013-10-08 19:08:00,56.0,44.0,30.33,NNW,338,1.0,4.0,64,0.00,,---,0.02,VWS V14.01,2013-10-08 23:08:00,
2013-10-08 19:13:00,55.0,43.5,30.33,NW,315,1.0,4.0,65,0.00,,---,0.02,VWS V14.01,2013-10-08 23:13:00,
2013-10-08 19:18:00,55.0,43.9,30.33,NNW,338,2.0,4.0,66,0.00,,---,0.02,VWS V14.01,2013-10-08 23:18:00,
2013-10-08 19:23:00,55.0,43.9,30.33,NNW,338,1.0,5.0,66,0.00,,---,0.02,VWS V14.01,2013-10-08 23:23:00,
2013-10-08 19:28:00,54.0,43.3,30.33,NNW,338,3.0,5.0,67,0.00,,---,0.02,VWS V14.01,2013-10-08 23:28:00,
2013-10-08 19:33:00,54.0,42.9,30.34,NNW,338,2.0,5.0,66,0.00,,---,0.02,VWS V14.01,2013-10-08 23:33:00,
2013-10-08 19:38:00,54.0,44.1,30.34,NNW,338,0.0,5.0,69,0.00,,---,0.02,VWS V14.01,2013-10-08 23:38:00,
2013-10-08 19:43:00,54.0,44.1,30.33,NNW,338,0.0,2.0,69,0.00,,---,0.02,VWS V14.01,2013-10-08 23:43:00,
2013-10-08 19:48:00,53.0,43.9,30.34,NNE,22,3.0,3.0,71,0.00,,---,0.02,VWS V14.01,2013-10-08 23:48:00,
2013-10-08 19:54:00,53.0,43.9,30.34,NE,45,1.0,5.0,71,0.00,,---,0.02,VWS V14.01,2013-10-08 23:54:00,
2013-10-08 19:59:00,53.0,44.2,30.34,NNW,338,1.0,5.0,72,0.00,,---,0.02,VWS V14.01,2013-10-08 23:59:00,
2013-10-08 20:04:00,52.0,43.3,30.34,North,0,1.0,1.0,72,0.00,,---,0.02,VWS V14.01,2013-10-09 00:04:00,
2013-10-08 20:09:00,52.0,43.3,30.34,NE,45,0.0,1.0,72,0.00,,---,0.02,VWS V14.01,2013-10-09 00:09:00,
2013-10-08 20:14:00,52.0,44.0,30.34,NE,45,1.0,1.0,74,0.00,,---,0.02,VWS V14.01,2013-10-09 00:14:00,
2013-10-08 20:19:00,52.0,44.0,30.34,ENE,68,0.0,1.0,74,0.00,,---,0.02,VWS V14.01,2013-10-09 00:19:00,
2013-10-08 20:24:00,51.0,43.4,30.35,ENE,68,0.0,1.0,75,0.00,,---,0.02,VWS V14.01,2013-10-09 00:24:00,
2013-10-08 20:29:00,51.0,43.4,30.35,NE,45,1.0,2.0,75,0.00,,---,0.02,VWS V14.01,2013-10-09 00:29:00,
2013-10-08 20:34:00,51.0,44.0,30.35,NE,45,0.0,2.0,77,0.00,,---,0.02,VWS V14.01,2013-10-09 00:34:00,
2013-10-08 20:40:00,51.0,44.0,30.35,ENE,68,0.0,2.0,77,0.00,,---,0.02,VWS V14.01,2013-10-09 00:40:00,
2013-10-08 20:45:00,50.0,43.4,30.35,ENE,68,0.0,1.0,78,0.00,,---,0.02,VWS V14.01,2013-10-09 00:45:00,
2013-10-08 20:50:00,50.0,43.8,30.35,ESE,112,1.0,1.0,79,0.00,,---,0.02,VWS V14.01,2013-10-09 00:50:00,
2013-10-08 20:55:00,50.0,43.8,30.35,SE,135,1.0,2.0,79,0.00,,---,0.02,VWS V14.01,2013-10-09 00:55:00,
2013-10-08 21:00:00,49.0,42.8,30.35,SE,135,1.0,2.0,79,0.00,,---,0.02,VWS V14.01,2013-10-09 01:00:00,
2013-10-08 21:05:00,49.0,43.1,30.35,SE,135,0.0,1.0,80,0.00,,---,0.02,VWS V14.01,2013-10-09 01:05:00,
2013-10-08 21:10:00,49.0,43.1,30.36,SE,135,0.0,1.0,80,0.00,,---,0.02,VWS V14.01,2013-10-09 01:10:00,
2013-10-08 21:15:00,49.0,43.4,30.36,SE,135,1.0,1.0,81,0.00,,---,0.02,VWS V14.01,2013-10-09 01:15:00,
2013-10-08 21:20:00,48.0,42.8,30.36,SE,135,1.0,1.0,82,0.00,,---,0.02,VWS V14.01,2013-10-09 01:20:00,
2013-10-08 21:25:00,48.0,42.8,30.36,SE,135,1.0,1.0,82,0.00,,---,0.02,VWS V14.01,2013-10-09 01:25:00,
2013-10-08 21:31:00,48.0,43.1,30.36,SE,135,1.0,2.0,83,0.00,,---,0.02,VWS V14.01,2013-10-09 01:31:00,
2013-10-08 21:36:00,48.0,43.1,30.36,SSE,158,1.0,2.0,83,0.00,,---,0.02,VWS V14.01,2013-10-09 01:36:00,
2013-10-08 21:41:00,47.0,42.4,30.36,WSW,248,0.0,1.0,84,0.00,,---,0.02,VWS V14.01,2013-10-09 01:41:00,
2013-10-08 21:46:00,47.0,42.4,30.36,SW,225,0.0,1.0,84,0.00,,---,0.02,VWS V14.01,2013-10-09 01:46:00,
2013-10-08 21:51:00,47.0,42.7,30.36,SW,225,0.0,1.0,85,0.00,,---,0.02,VWS V14.01,2013-10-09 01:51:00,
2013-10-08 21:56:00,47.0,42.7,30.36,WSW,248,1.0,1.0,85,0.00,,---,0.02,VWS V14.01,2013-10-09 01:56:00,
2013-10-08 22:01:00,47.0,43.0,30.36,SW,225,1.0,1.0,86,0.00,,---,0.02,VWS V14.01,2013-10-09 02:01:00,
2013-10-08 22:06:00,46.0,42.0,30.36,SW,225,0.0,1.0,86,0.00,,---,0.02,VWS V14.01,2013-10-09 02:06:00,
2013-10-08 22:12:00,46.0,42.3,30.36,SW,225,0.0,1.0,87,0.00,,---,0.02,VWS V14.01,2013-10-09 02:12:00,
2013-10-08 22:17:00,46.0,42.3,30.36,SW,225,0.0,1.0,87,0.00,,---,0.02,VWS V14.01,2013-10-09 02:17:00,
2013-10-08 22:22:00,46.0,42.3,30.36,SW,225,0.0,1.0,87,0.00,,---,0.02,VWS V14.01,2013-10-09 02:22:00,
2013-10-08 22:27:00,46.0,42.7,30.36,SW,225,1.0,1.0,88,0.00,,---,0.02,VWS V14.01,2013-10-09 02:27:00,
2013-10-08 22:32:00,46.0,42.7,30.36,SW,225,0.0,1.0,88,0.00,,---,0.02,VWS V14.01,2013-10-09 02:32:00,
2013-10-08 22:37:00,46.0,42.7,30.36,SSW,202,0.0,1.0,88,0.00,,---,0.02,VWS V14.01,2013-10-09 02:37:00,
2013-10-08 22:42:00,46.0,43.0,30.36,SSW,202,0.0,1.0,89,0.00,,---,0.02,VWS V14.01,2013-10-09 02:42:00,
2013-10-08 22:48:00,45.0,42.0,30.36,SSW,202,0.0,1.0,89,0.00,,---,0.02,VWS V14.01,2013-10-09 02:48:00,
2013-10-08 22:53:00,45.0,42.0,30.36,South,180,0.0,1.0,89,0.00,,---,0.02,VWS V14.01,2013-10-09 02:53:00,
2013-10-08 22:58:00,45.0,42.0,30.36,South,180,1.0,1.0,89,0.00,,---,0.02,VWS V14.01,2013-10-09 02:58:00,
2013-10-08 23:03:00,45.0,42.2,30.36,South,180,0.0,1.0,90,0.00,,---,0.02,VWS V14.01,2013-10-09 03:03:00,
2013-10-08 23:08:00,45.0,42.2,30.36,SSW,202,0.0,1.0,90,0.00,,---,0.02,VWS V14.01,2013-10-09 03:08:00,
2013-10-08 23:13:00,45.0,42.2,30.36,South,180,0.0,1.0,90,0.00,,---,0.02,VWS V14.01,2013-10-09 03:13:00,
2013-10-08 23:18:00,45.0,42.2,30.36,South,180,1.0,1.0,90,0.00,,---,0.02,VWS V14.01,2013-10-09 03:18:00,
2013-10-08 23:23:00,45.0,42.5,30.36,SSE,158,1.0,1.0,91,0.00,,---,0.02,VWS V14.01,2013-10-09 03:23:00,
2013-10-08 23:28:00,45.0,42.5,30.36,SE,135,0.0,1.0,91,0.00,,---,0.02,VWS V14.01,2013-10-09 03:28:00,
2013-10-08 23:33:00,45.0,42.5,30.36,SSE,158,0.0,1.0,91,0.00,,---,0.02,VWS V14.01,2013-10-09 03:33:00,
2013-10-08 23:39:00,44.0,41.5,30.36,SE,135,0.0,1.0,91,0.00,,---,0.02,VWS V14.01,2013-10-09 03:39:00,
2013-10-08 23:44:00,44.0,41.5,30.36,SSE,158,0.0,0.0,91,0.00,,---,0.02,VWS V14.01,2013-10-09 03:44:00,
2013-10-08 23:49:00,44.0,41.5,30.36,SSE,158,0.0,0.0,91,0.00,,---,0.02,VWS V14.01,2013-10-09 03:49:00,
2013-10-08 23:54:00,44.0,41.8,30.36,SSE,158,0.0,0.0,92,0.00,,---,0.02,VWS V14.01,2013-10-09 03:54:00,
2013-10-08 23:59:00,44.0,41.8,30.36,SE,135,0.0,0.0,92,0.00,,---,0.02,VWS V14.01,2013-10-09 03:59:00,